Time,TemperatureF,DewpointF,PressureIn,WindDirection,WindDirectionDegrees,WindSpeedMPH,WindSpeedGustMPH,Humidity,HourlyPrecipIn,Conditions,Clouds,dailyrainin,SoftwareType,DateUTC
2013-08-28 00:00:00,73.8,66.4,29.72,NW,323,0.0,5.0,78,0.00,,,0.00,VWS V14.01,2013-08-28 05:00:00,
2013-08-28 00:04:00,73.1,66.1,29.72,WNW,287,2.0,4.0,79,0.00,,,0.00,VWS V14.01,2013-08-28 05:04:00,
2013-08-28 00:09:00,73.3,66.3,29.72,WSW,255,2.0,4.0,79,0.00,,,0.00,VWS V14.01,2013-08-28 05:09:00,
2013-08-28 00:14:00,73.3,66.3,29.72,SSW,199,3.0,7.0,79,0.00,,,0.00,VWS V14.01,2013-08-28 05:14:00,
2013-08-28 00:15:00,73.5,66.5,29.72,West,275,1.0,4.0,79,0.00,,,0.00,VWS V14.01,2013-08-28 05:15:00,
2013-08-28 00:19:00,73.0,66.4,29.72,South,179,1.0,4.0,80,0.00,,,0.00,VWS V14.01,2013-08-28 05:19:00,
2013-08-28 00:24:00,72.8,66.5,29.72,SSE,155,1.0,4.0,81,0.00,,,0.00,VWS V14.01,2013-08-28 05:24:00,
2013-08-28 00:29:00,72.5,66.2,29.72,SSE,158,1.0,4.0,81,0.00,,,0.00,VWS V14.01,2013-08-28 05:29:00,
2013-08-28 00:30:00,72.7,66.4,29.72,West,275,2.0,3.0,81,0.00,,,0.00,VWS V14.01,2013-08-28 05:30:00,
2013-08-28 00:34:00,72.3,66.4,29.72,SE,146,3.0,5.0,82,0.00,,,0.00,VWS V14.01,2013-08-28 05:34:00,
2013-08-28 00:39:00,72.2,66.3,29.72,SSE,147,2.0,5.0,82,0.00,,,0.00,VWS V14.01,2013-08-28 05:39:00,
2013-08-28 00:44:00,72.1,66.2,29.72,South,171,2.0,5.0,82,0.00,,,0.00,VWS V14.01,2013-08-28 05:44:00,
2013-08-28 00:45:00,72.4,66.5,29.72,WSW,244,2.0,3.0,82,0.00,,,0.00,VWS V14.01,2013-08-28 05:45:00,
2013-08-28 00:49:00,72.1,66.2,29.72,South,171,2.0,3.0,82,0.00,,,0.00,VWS V14.01,2013-08-28 05:49:00,
2013-08-28 00:54:00,72.0,65.8,29.72,South,169,1.0,4.0,81,0.00,,,0.00,VWS V14.01,2013-08-28 05:54:00,
2013-08-28 00:59:00,72.0,65.8,29.72,SSE,149,3.0,4.0,81,0.00,,,0.00,VWS V14.01,2013-08-28 05:59:00,
2013-08-28 01:00:00,72.9,66.3,29.72,WNW,290,2.0,3.0,80,0.00,,,0.00,VWS V14.01,2013-08-28 06:00:00,
2013-08-28 01:04:00,72.0,65.8,29.72,SE,142,4.0,6.0,81,0.00,,,0.00,VWS V14.01,2013-08-28 06:04:00,
2013-08-28 01:09:00,71.9,65.3,29.72,South,181,4.0,6.0,80,0.00,,,0.00,VWS V14.01,2013-08-28 06:09:00,
2013-08-28 01:14:00,71.7,65.1,29.72,SSE,156,2.0,6.0,80,0.00,,,0.00,VWS V14.01,2013-08-28 06:14:00,
2013-08-28 01:15:00,73.3,66.3,29.72,SSE,167,3.0,7.0,79,0.00,,,0.00,VWS V14.01,2013-08-28 06:15:00,
2013-08-28 01:19:00,71.6,65.0,29.72,South,173,1.0,3.0,80,0.00,,,0.00,VWS V14.01,2013-08-28 06:19:00,
2013-08-28 01:24:00,71.5,64.9,29.72,SSE,152,2.0,5.0,80,0.00,,,0.00,VWS V14.01,2013-08-28 06:24:00,
2013-08-28 01:29:00,71.5,65.3,29.72,South,169,6.0,7.0,81,0.00,,,0.00,VWS V14.01,2013-08-28 06:29:00,
2013-08-28 01:30:00,72.5,66.2,29.72,SSE,158,1.0,4.0,81,0.00,,,0.00,VWS V14.01,2013-08-28 06:30:00,
2013-08-28 01:34:00,71.5,65.3,29.72,South,185,3.0,7.0,81,0.00,,,0.00,VWS V14.01,2013-08-28 06:34:00,
2013-08-28 01:39:00,71.5,65.3,29.72,South,184,4.0,7.0,81,0.00,,,0.00,VWS V14.01,2013-08-28 06:39:00,
2013-08-28 01:44:00,71.3,65.1,29.73,South,186,3.0,7.0,81,0.00,,,0.00,VWS V14.01,2013-08-28 06:44:00,
2013-08-28 01:45:00,72.1,66.2,29.72,South,171,2.0,5.0,82,0.00,,,0.00,VWS V14.01,2013-08-28 06:45:00,
2013-08-28 01:49:00,71.2,65.0,29.73,South,184,4.0,5.0,81,0.00,,,0.00,VWS V14.01,2013-08-28 06:49:00,
2013-08-28 01:54:00,71.2,65.0,29.73,SSW,194,4.0,8.0,81,0.00,,,0.00,VWS V14.01,2013-08-28 06:54:00,
2013-08-28 01:59:00,71.3,65.1,29.73,South,176,4.0,8.0,81,0.00,,,0.00,VWS V14.01,2013-08-28 06:59:00,
2013-08-28 02:00:00,72.0,65.8,29.72,SSE,154,2.0,4.0,81,0.00,,,0.00,VWS V14.01,2013-08-28 07:00:00,
2013-08-28 02:04:00,71.3,65.1,29.73,South,182,3.0,7.0,81,0.00,,,0.00,VWS V14.01,2013-08-28 07:04:00,
2013-08-28 02:09:00,71.3,65.1,29.73,South,185,7.0,9.0,81,0.00,,,0.00,VWS V14.01,2013-08-28 07:09:00,
2013-08-28 02:14:00,71.2,65.0,29.73,SSW,194,9.0,11.0,81,0.00,,,0.00,VWS V14.01,2013-08-28 07:14:00,
2013-08-28 02:15:00,71.7,65.1,29.72,SSE,163,2.0,6.0,80,0.00,,,0.00,VWS V14.01,2013-08-28 07:15:00,
2013-08-28 02:19:00,71.1,64.9,29.73,SSE,165,9.0,10.0,81,0.00,,,0.00,VWS V14.01,2013-08-28 07:19:00,
2013-08-28 02:24:00,71.0,64.8,29.73,South,176,7.0,10.0,81,0.00,,,0.00,VWS V14.01,2013-08-28 07:24:00,
2013-08-28 02:29:00,70.9,64.7,29.73,South,169,3.0,10.0,81,0.00,,,0.00,VWS V14.01,2013-08-28 07:29:00,
2013-08-28 02:30:00,71.5,65.3,29.72,South,173,5.0,7.0,81,0.00,,,0.00,VWS V14.01,2013-08-28 07:30:00,
2013-08-28 02:34:00,70.8,64.6,29.73,South,182,4.0,8.0,81,0.00,,,0.00,VWS V14.01,2013-08-28 07:34:00,
2013-08-28 02:39:00,70.7,64.5,29.73,South,187,1.0,8.0,81,0.00,,,0.00,VWS V14.01,2013-08-28 07:39:00,
2013-08-28 02:44:00,70.5,64.6,29.73,South,187,2.0,8.0,82,0.00,,,0.00,VWS V14.01,2013-08-28 07:44:00,
2013-08-28 02:45:00,71.3,65.1,29.73,South,180,4.0,7.0,81,0.00,,,0.00,VWS V14.01,2013-08-28 07:45:00,
2013-08-28 02:49:00,70.2,64.3,29.73,West,262,1.0,4.0,82,0.00,,,0.00,VWS V14.01,2013-08-28 07:49:00,
2013-08-28 02:54:00,69.8,64.3,29.73,West,262,2.0,4.0,83,0.00,,,0.00,VWS V14.01,2013-08-28 07:54:00,
2013-08-28 02:59:00,69.5,64.4,29.73,West,262,2.0,4.0,84,0.00,,,0.00,VWS V14.01,2013-08-28 07:59:00,
2013-08-28 03:00:00,71.3,65.1,29.73,South,177,3.0,8.0,81,0.00,,,0.00,VWS V14.01,2013-08-28 08:00:00,
2013-08-28 03:04:00,69.0,64.2,29.73,West,262,2.0,3.0,85,0.00,,,0.00,VWS V14.01,2013-08-28 08:04:00,
2013-08-28 03:09:00,68.5,64.1,29.73,West,276,2.0,4.0,86,0.00,,,0.00,VWS V14.01,2013-08-28 08:09:00,
2013-08-28 03:14:00,68.3,63.9,29.73,West,276,1.0,4.0,86,0.00,,,0.00,VWS V14.01,2013-08-28 08:14:00,
2013-08-28 03:15:00,71.2,65.0,29.73,South,178,7.0,11.0,81,0.00,,,0.00,VWS V14.01,2013-08-28 08:15:00,
2013-08-28 03:19:00,68.1,64.0,29.73,West,276,2.0,3.0,87,0.00,,,0.00,VWS V14.01,2013-08-28 08:19:00,
2013-08-28 03:24:00,68.0,63.9,29.73,West,276,2.0,3.0,87,0.00,,,0.00,VWS V14.01,2013-08-28 08:24:00,
2013-08-28 03:29:00,68.0,63.9,29.73,West,276,2.0,3.0,87,0.00,,,0.00,VWS V14.01,2013-08-28 08:29:00,
2013-08-28 03:30:00,70.9,64.7,29.73,SSE,162,3.0,10.0,81,0.00,,,0.00,VWS V14.01,2013-08-28 08:30:00,
2013-08-28 03:34:00,68.1,64.0,29.73,West,268,2.0,3.0,87,0.00,,,0.00,VWS V14.01,2013-08-28 08:34:00,
2013-08-28 03:39:00,68.3,64.2,29.73,WSW,256,2.0,3.0,87,0.00,,,0.00,VWS V14.01,2013-08-28 08:39:00,
2013-08-28 03:44:00,68.3,63.9,29.73,West,269,2.0,3.0,86,0.00,,,0.00,VWS V14.01,2013-08-28 08:44:00,
2013-08-28 03:45:00,70.5,64.6,29.73,South,187,2.0,8.0,82,0.00,,,0.00,VWS V14.01,2013-08-28 08:45:00,
2013-08-28 03:49:00,68.3,63.9,29.73,West,269,1.0,3.0,86,0.00,,,0.00,VWS V14.01,2013-08-28 08:49:00,
2013-08-28 03:54:00,68.2,63.8,29.73,WSW,247,2.0,4.0,86,0.00,,,0.00,VWS V14.01,2013-08-28 08:54:00,
2013-08-28 03:59:00,68.2,63.8,29.73,WSW,251,1.0,4.0,86,0.00,,,0.00,VWS V14.01,2013-08-28 08:59:00,
2013-08-28 04:00:00,69.4,64.3,29.73,West,262,1.0,4.0,84,0.00,,,0.00,VWS V14.01,2013-08-28 09:00:00,
2013-08-28 04:04:00,68.3,63.5,29.73,WSW,250,2.0,4.0,85,0.00,,,0.00,VWS V14.01,2013-08-28 09:04:00,
2013-08-28 04:09:00,68.5,63.4,29.73,West,279,2.0,4.0,84,0.00,,,0.00,VWS V14.01,2013-08-28 09:09:00,
2013-08-28 04:14:00,68.6,63.5,29.73,West,278,3.0,4.0,84,0.00,,,0.00,VWS V14.01,2013-08-28 09:14:00,
2013-08-28 04:15:00,68.2,64.1,29.73,West,276,2.0,4.0,87,0.00,,,0.00,VWS V14.01,2013-08-28 09:15:00,
2013-08-28 04:19:00,68.4,63.3,29.73,West,271,3.0,4.0,84,0.00,,,0.00,VWS V14.01,2013-08-28 09:19:00,
2013-08-28 04:24:00,68.3,63.2,29.73,WNW,285,2.0,4.0,84,0.00,,,0.00,VWS V14.01,2013-08-28 09:24:00,
2013-08-28 04:29:00,68.1,63.3,29.73,WNW,286,3.0,5.0,85,0.00,,,0.00,VWS V14.01,2013-08-28 09:29:00,
2013-08-28 04:30:00,68.0,63.9,29.73,West,276,2.0,3.0,87,0.00,,,0.00,VWS V14.01,2013-08-28 09:30:00,
2013-08-28 04:33:00,67.8,63.0,29.73,WNW,288,1.0,2.0,85,0.00,,,0.00,VWS V14.01,2013-08-28 09:33:00,
2013-08-28 04:38:00,67.6,63.2,29.73,West,274,2.0,3.0,86,0.00,,,0.00,VWS V14.01,2013-08-28 09:38:00,
2013-08-28 04:43:00,67.5,63.1,29.72,West,274,2.0,3.0,86,0.00,,,0.00,VWS V14.01,2013-08-28 09:43:00,
2013-08-28 04:45:00,68.4,64.0,29.73,West,269,2.0,3.0,86,0.00,,,0.00,VWS V14.01,2013-08-28 09:45:00,
2013-08-28 04:48:00,67.4,63.0,29.73,West,274,2.0,3.0,86,0.00,,,0.00,VWS V14.01,2013-08-28 09:48:00,
2013-08-28 04:53:00,67.4,63.0,29.73,West,274,2.0,3.0,86,0.00,,,0.00,VWS V14.01,2013-08-28 09:53:00,
2013-08-28 04:58:00,67.3,62.9,29.73,West,274,2.0,3.0,86,0.00,,,0.00,VWS V14.01,2013-08-28 09:58:00,
2013-08-28 05:00:00,68.2,63.8,29.73,WSW,251,1.0,4.0,86,0.00,,,0.00,VWS V14.01,2013-08-28 10:00:00,
2013-08-28 05:03:00,67.2,62.8,29.73,West,274,2.0,2.0,86,0.00,,,0.00,VWS V14.01,2013-08-28 10:03:00,
2013-08-28 05:08:00,67.2,62.8,29.73,WSW,253,1.0,3.0,86,0.00,,,0.00,VWS V14.01,2013-08-28 10:08:00,
2013-08-28 05:13:00,67.1,62.7,29.73,South,180,3.0,4.0,86,0.00,,,0.00,VWS V14.01,2013-08-28 10:13:00,
2013-08-28 05:15:00,68.6,63.5,29.73,West,278,2.0,4.0,84,0.00,,,0.00,VWS V14.01,2013-08-28 10:15:00,
2013-08-28 05:18:00,67.2,62.8,29.73,South,174,2.0,5.0,86,0.00,,,0.00,VWS V14.01,2013-08-28 10:18:00,
2013-08-28 05:23:00,67.4,63.0,29.73,South,174,2.0,5.0,86,0.00,,,0.00,VWS V14.01,2013-08-28 10:23:00,
2013-08-28 05:28:00,67.3,62.9,29.74,South,174,1.0,5.0,86,0.00,,,0.00,VWS V14.01,2013-08-28 10:28:00,
2013-08-28 05:30:00,68.0,63.2,29.73,WNW,288,1.0,5.0,85,0.00,,,0.00,VWS V14.01,2013-08-28 10:30:00,
2013-08-28 05:33:00,67.3,62.9,29.74,South,174,1.0,3.0,86,0.00,,,0.00,VWS V14.01,2013-08-28 10:33:00,
2013-08-28 05:38:00,67.3,62.9,29.74,South,174,0.0,3.0,86,0.00,,,0.00,VWS V14.01,2013-08-28 10:38:00,
2013-08-28 05:43:00,67.3,62.9,29.73,West,267,2.0,4.0,86,0.00,,,0.00,VWS V14.01,2013-08-28 10:43:00,
2013-08-28 05:45:00,67.4,63.0,29.73,West,274,2.0,3.0,86,0.00,,,0.00,VWS V14.01,2013-08-28 10:45:00,
2013-08-28 05:48:00,67.4,62.6,29.73,West,267,1.0,2.0,85,0.00,,,0.00,VWS V14.01,2013-08-28 10:48:00,
2013-08-28 05:53:00,67.3,62.5,29.72,West,267,1.0,2.0,85,0.00,,,0.00,VWS V14.01,2013-08-28 10:53:00,
2013-08-28 05:58:00,67.2,62.4,29.72,West,267,1.0,2.0,85,0.00,,,0.00,VWS V14.01,2013-08-28 10:58:00,
2013-08-28 06:00:00,67.3,62.9,29.73,West,274,1.0,3.0,86,0.00,,,0.00,VWS V14.01,2013-08-28 11:00:00,
2013-08-28 06:03:00,67.0,62.6,29.72,West,267,1.0,2.0,86,0.00,,,0.00,VWS V14.01,2013-08-28 11:03:00,
2013-08-28 06:08:00,66.9,62.5,29.72,West,267,0.0,2.0,86,0.00,,,0.00,VWS V14.01,2013-08-28 11:08:00,
2013-08-28 06:13:00,66.7,62.3,29.73,West,267,0.0,2.0,86,0.00,,,0.00,VWS V14.01,2013-08-28 11:13:00,
2013-08-28 06:15:00,67.2,62.8,29.73,SSE,167,3.0,4.0,86,0.00,,,0.00,VWS V14.01,2013-08-28 11:15:00,
2013-08-28 06:18:00,66.5,62.4,29.73,West,267,1.0,2.0,87,0.00,,,0.00,VWS V14.01,2013-08-28 11:18:00,
2013-08-28 06:23:00,66.6,62.5,29.73,South,176,3.0,3.0,87,0.00,,,0.00,VWS V14.01,2013-08-28 11:23:00,
2013-08-28 06:28:00,66.9,62.8,29.74,South,171,2.0,5.0,87,0.00,,,0.00,VWS V14.01,2013-08-28 11:28:00,
2013-08-28 06:30:00,67.3,62.9,29.74,South,174,2.0,5.0,86,0.00,,,0.00,VWS V14.01,2013-08-28 11:30:00,
2013-08-28 06:33:00,67.0,62.9,29.74,SSE,168,3.0,3.0,87,0.00,,,0.00,VWS V14.01,2013-08-28 11:33:00,
2013-08-28 06:38:00,67.0,62.9,29.74,South,173,2.0,5.0,87,0.00,,,0.00,VWS V14.01,2013-08-28 11:38:00,
2013-08-28 06:43:00,67.1,62.7,29.74,South,180,2.0,5.0,86,0.00,,,0.00,VWS V14.01,2013-08-28 11:43:00,
2013-08-28 06:45:00,67.4,62.6,29.73,West,267,1.0,4.0,85,0.00,,,0.00,VWS V14.01,2013-08-28 11:45:00,
2013-08-28 06:48:00,67.1,62.7,29.74,South,180,1.0,2.0,86,0.00,,,0.00,VWS V14.01,2013-08-28 11:48:00,
2013-08-28 06:53:00,67.1,62.7,29.74,South,180,1.0,2.0,86,0.00,,,0.00,VWS V14.01,2013-08-28 11:53:00,
2013-08-28 06:58:00,67.2,62.8,29.74,South,180,1.0,2.0,86,0.00,,,0.00,VWS V14.01,2013-08-28 11:58:00,
2013-08-28 07:00:00,67.2,62.4,29.72,West,267,1.0,2.0,85,0.00,,,0.00,VWS V14.01,2013-08-28 12:00:00,
2013-08-28 07:03:00,67.4,62.6,29.74,South,180,0.0,1.0,85,0.00,,,0.00,VWS V14.01,2013-08-28 12:03:00,
2013-08-28 07:08:00,67.4,62.6,29.74,South,180,1.0,2.0,85,0.00,,,0.00,VWS V14.01,2013-08-28 12:08:00,
2013-08-28 07:13:00,67.4,62.6,29.74,South,180,1.0,2.0,85,0.00,,,0.00,VWS V14.01,2013-08-28 12:13:00,
2013-08-28 07:15:00,66.6,62.2,29.73,West,267,1.0,2.0,86,0.00,,,0.00,VWS V14.01,2013-08-28 12:15:00,
2013-08-28 07:18:00,67.3,62.5,29.75,South,180,0.0,1.0,85,0.00,,,0.00,VWS V14.01,2013-08-28 12:18:00,
2013-08-28 07:23:00,67.2,62.4,29.75,South,180,0.0,1.0,85,0.00,,,0.00,VWS V14.01,2013-08-28 12:23:00,
2013-08-28 07:28:00,67.3,62.5,29.74,South,180,1.0,2.0,85,0.00,,,0.00,VWS V14.01,2013-08-28 12:28:00,
2013-08-28 07:30:00,67.0,62.9,29.74,SSE,164,3.0,5.0,87,0.00,,,0.00,VWS V14.01,2013-08-28 12:30:00,
2013-08-28 07:33:00,67.4,62.6,29.74,South,180,0.0,2.0,85,0.00,,,0.00,VWS V14.01,2013-08-28 12:33:00,
2013-08-28 07:38:00,67.3,62.9,29.74,South,180,1.0,2.0,86,0.00,,,0.00,VWS V14.01,2013-08-28 12:38:00,
2013-08-28 07:43:00,66.9,62.8,29.75,South,180,0.0,2.0,87,0.00,,,0.00,VWS V14.01,2013-08-28 12:43:00,
2013-08-28 07:45:00,67.1,62.7,29.74,South,180,1.0,5.0,86,0.00,,,0.00,VWS V14.01,2013-08-28 12:45:00,
2013-08-28 07:48:00,66.7,62.6,29.75,South,180,1.0,1.0,87,0.00,,,0.00,VWS V14.01,2013-08-28 12:48:00,
2013-08-28 07:53:00,66.5,62.7,29.75,South,180,1.0,2.0,88,0.00,,,0.00,VWS V14.01,2013-08-28 12:53:00,
2013-08-28 07:58:00,66.4,62.7,29.75,South,180,0.0,2.0,88,0.00,,,0.00,VWS V14.01,2013-08-28 12:58:00,
2013-08-28 08:00:00,67.3,62.9,29.74,South,180,0.0,2.0,86,0.00,,,0.00,VWS V14.01,2013-08-28 13:00:00,
2013-08-28 08:03:00,66.5,62.7,29.75,South,180,1.0,1.0,88,0.00,,,0.00,VWS V14.01,2013-08-28 13:03:00,
2013-08-28 08:08:00,66.9,62.8,29.75,South,180,2.0,2.0,87,0.00,,,0.00,VWS V14.01,2013-08-28 13:08:00,
2013-08-28 08:13:00,67.6,63.5,29.75,South,180,0.0,2.0,87,0.00,,,0.00,VWS V14.01,2013-08-28 13:13:00,
2013-08-28 08:15:00,67.4,62.6,29.74,South,180,1.0,2.0,85,0.00,,,0.00,VWS V14.01,2013-08-28 13:15:00,
2013-08-28 08:18:00,68.2,63.8,29.75,South,180,0.0,2.0,86,0.00,,,0.00,VWS V14.01,2013-08-28 13:18:00,
2013-08-28 08:23:00,68.6,63.5,29.75,South,180,0.0,2.0,84,0.00,,,0.00,VWS V14.01,2013-08-28 13:23:00,
2013-08-28 08:28:00,69.0,63.9,29.75,South,180,0.0,2.0,84,0.00,,,0.00,VWS V14.01,2013-08-28 13:28:00,
2013-08-28 08:30:00,67.3,62.5,29.75,South,180,2.0,2.0,85,0.00,,,0.00,VWS V14.01,2013-08-28 13:30:00,
2013-08-28 08:33:00,69.4,64.3,29.75,South,180,0.0,0.0,84,0.00,,,0.00,VWS V14.01,2013-08-28 13:33:00,
2013-08-28 08:38:00,69.9,64.4,29.75,South,180,2.0,2.0,83,0.00,,,0.00,VWS V14.01,2013-08-28 13:38:00,
2013-08-28 08:43:00,70.1,64.2,29.75,South,178,3.0,3.0,82,0.00,,,0.00,VWS V14.01,2013-08-28 13:43:00,
2013-08-28 08:45:00,66.9,62.8,29.75,South,180,0.0,2.0,87,0.00,,,0.00,VWS V14.01,2013-08-28 13:45:00,
2013-08-28 08:48:00,70.5,64.6,29.76,South,179,2.0,4.0,82,0.00,,,0.00,VWS V14.01,2013-08-28 13:48:00,
2013-08-28 08:53:00,70.9,65.0,29.76,SSE,167,5.0,5.0,82,0.00,,,0.00,VWS V14.01,2013-08-28 13:53:00,
2013-08-28 08:58:00,71.5,66.0,29.76,SE,134,3.0,6.0,83,0.00,,,0.00,VWS V14.01,2013-08-28 13:58:00,
2013-08-28 09:00:00,66.4,62.7,29.75,South,180,1.0,2.0,88,0.00,,,0.00,VWS V14.01,2013-08-28 14:00:00,
2013-08-28 09:03:00,71.9,66.0,29.76,SSE,163,3.0,4.0,82,0.00,,,0.00,VWS V14.01,2013-08-28 14:03:00,
2013-08-28 09:08:00,72.4,66.5,29.76,SSE,163,1.0,4.0,82,0.00,,,0.00,VWS V14.01,2013-08-28 14:08:00,
2013-08-28 09:13:00,73.0,66.7,29.75,South,169,2.0,4.0,81,0.00,,,0.00,VWS V14.01,2013-08-28 14:13:00,
2013-08-28 09:15:00,67.8,63.7,29.75,South,180,0.0,2.0,87,0.00,,,0.00,VWS V14.01,2013-08-28 14:15:00,
2013-08-28 09:18:00,73.6,66.6,29.75,South,169,1.0,2.0,79,0.00,,,0.00,VWS V14.01,2013-08-28 14:18:00,
2013-08-28 09:23:00,74.2,65.7,29.76,South,169,1.0,2.0,75,0.00,,,0.00,VWS V14.01,2013-08-28 14:23:00,
2013-08-28 09:28:00,74.8,66.2,29.75,South,169,1.0,2.0,75,0.00,,,0.00,VWS V14.01,2013-08-28 14:28:00,
2013-08-28 09:30:00,69.1,64.0,29.75,South,180,0.0,2.0,84,0.00,,,0.00,VWS V14.01,2013-08-28 14:30:00,
2013-08-28 09:33:00,75.2,66.2,29.76,South,169,0.0,1.0,74,0.00,,,0.00,VWS V14.01,2013-08-28 14:33:00,
2013-08-28 09:38:00,75.5,66.9,29.75,South,169,0.0,1.0,75,0.00,,,0.00,VWS V14.01,2013-08-28 14:38:00,
2013-08-28 09:43:00,75.5,68.1,29.75,South,170,0.0,1.0,78,0.00,,,0.00,VWS V14.01,2013-08-28 14:43:00,
2013-08-28 09:45:00,70.3,64.4,29.75,South,182,2.0,3.0,82,0.00,,,0.00,VWS V14.01,2013-08-28 14:45:00,
2013-08-28 09:48:00,75.1,67.7,29.75,South,170,0.0,1.0,78,0.00,,,0.00,VWS V14.01,2013-08-28 14:48:00,
2013-08-28 09:53:00,74.8,67.8,29.75,South,170,1.0,2.0,79,0.00,,,0.00,VWS V14.01,2013-08-28 14:53:00,
2013-08-28 09:58:00,75.1,68.4,29.75,South,170,0.0,2.0,80,0.00,,,0.00,VWS V14.01,2013-08-28 14:58:00,
2013-08-28 10:00:00,71.6,65.7,29.76,SE,142,2.0,6.0,82,0.00,,,0.00,VWS V14.01,2013-08-28 15:00:00,
2013-08-28 10:03:00,75.7,69.0,29.75,South,170,0.0,2.0,80,0.00,,,0.00,VWS V14.01,2013-08-28 15:03:00,
2013-08-28 10:08:00,76.2,69.8,29.75,South,170,1.0,2.0,81,0.00,,,0.00,VWS V14.01,2013-08-28 15:08:00,
2013-08-28 10:13:00,76.4,68.9,29.75,West,274,0.0,3.0,78,0.00,,,0.00,VWS V14.01,2013-08-28 15:13:00,
2013-08-28 10:15:00,73.2,66.6,29.76,South,169,1.0,4.0,80,0.00,,,0.00,VWS V14.01,2013-08-28 15:15:00,
2013-08-28 10:18:00,76.7,68.5,29.75,NW,316,1.0,2.0,76,0.00,,,0.00,VWS V14.01,2013-08-28 15:18:00,
2013-08-28 10:23:00,76.9,69.0,29.75,WNW,297,1.0,5.0,77,0.00,,,0.00,VWS V14.01,2013-08-28 15:23:00,
2013-08-28 10:28:00,77.3,69.0,29.75,NW,314,2.0,5.0,76,0.00,,,0.00,VWS V14.01,2013-08-28 15:28:00,
2013-08-28 10:30:00,75.0,66.0,29.76,South,169,0.0,2.0,74,0.00,,,0.00,VWS V14.01,2013-08-28 15:30:00,
2013-08-28 10:33:00,77.6,68.2,29.75,NW,325,1.0,2.0,73,0.00,,,0.00,VWS V14.01,2013-08-28 15:33:00,
2013-08-28 10:38:00,78.1,69.0,29.75,NW,325,0.0,2.0,74,0.00,,,0.00,VWS V14.01,2013-08-28 15:38:00,
2013-08-28 10:43:00,78.6,69.5,29.75,NW,325,1.0,2.0,74,0.00,,,0.00,VWS V14.01,2013-08-28 15:43:00,
2013-08-28 10:45:00,75.3,67.5,29.75,South,170,1.0,1.0,77,0.00,,,0.00,VWS V14.01,2013-08-28 15:45:00,
2013-08-28 10:48:00,79.3,69.8,29.75,NW,325,1.0,2.0,73,0.00,,,0.00,VWS V14.01,2013-08-28 15:48:00,
2013-08-28 10:53:00,79.6,70.5,29.75,NW,309,0.0,3.0,74,0.00,,,0.00,VWS V14.01,2013-08-28 15:53:00,
2013-08-28 10:58:00,80.0,69.2,29.76,NNE,30,2.0,3.0,70,0.00,,,0.00,VWS V14.01,2013-08-28 15:58:00,
2013-08-28 11:00:00,75.4,69.1,29.76,South,169,2.0,2.0,81,0.00,,,0.00,VWS V14.01,2013-08-28 16:00:00,
2013-08-28 11:03:00,80.6,69.8,29.76,NNE,29,0.0,2.0,70,0.00,,,0.00,VWS V14.01,2013-08-28 16:03:00,
2013-08-28 11:08:00,81.2,70.4,29.76,NNE,17,1.0,3.0,70,0.00,,,0.00,VWS V14.01,2013-08-28 16:08:00,
2013-08-28 11:13:00,82.1,70.8,29.76,NNW,346,0.0,3.0,69,0.00,,,0.00,VWS V14.01,2013-08-28 16:13:00,
2013-08-28 11:15:00,76.5,69.0,29.75,NW,316,1.0,3.0,78,0.00,,,0.00,VWS V14.01,2013-08-28 16:15:00,
2013-08-28 11:18:00,82.8,70.2,29.76,ESE,116,2.0,5.0,66,0.00,,,0.00,VWS V14.01,2013-08-28 16:18:00,
2013-08-28 11:23:00,83.1,70.4,29.76,SE,137,3.0,5.0,66,0.00,,,0.00,VWS V14.01,2013-08-28 16:23:00,
2013-08-28 11:28:00,83.6,70.9,29.76,East,92,2.0,5.0,66,0.00,,,0.00,VWS V14.01,2013-08-28 16:28:00,
2013-08-28 11:30:00,77.5,69.2,29.75,NW,314,1.0,5.0,76,0.00,,,0.00,VWS V14.01,2013-08-28 16:30:00,
2013-08-28 11:33:00,83.7,70.6,29.75,ESE,119,2.0,5.0,65,0.00,,,0.00,VWS V14.01,2013-08-28 16:33:00,
2013-08-28 11:38:00,84.0,70.4,29.75,SE,132,3.0,7.0,64,0.00,,,0.00,VWS V14.01,2013-08-28 16:38:00,
2013-08-28 11:43:00,84.1,70.9,29.75,NE,54,1.0,7.0,65,0.00,,,0.00,VWS V14.01,2013-08-28 16:43:00,
2013-08-28 11:45:00,78.9,69.8,29.75,NW,325,1.0,2.0,74,0.00,,,0.00,VWS V14.01,2013-08-28 16:45:00,
2013-08-28 11:48:00,84.5,72.2,29.75,NE,49,2.0,4.0,67,0.00,,,0.00,VWS V14.01,2013-08-28 16:48:00,
2013-08-28 11:53:00,84.6,70.9,29.75,NNE,31,1.0,7.0,64,0.00,,,0.00,VWS V14.01,2013-08-28 16:53:00,
2013-08-28 11:58:00,84.5,70.4,29.75,East,100,2.0,9.0,63,0.00,,,0.00,VWS V14.01,2013-08-28 16:58:00,
2013-08-28 12:00:00,80.2,69.4,29.76,NNE,29,1.0,3.0,70,0.00,,,0.00,VWS V14.01,2013-08-28 17:00:00,
2013-08-28 12:03:00,84.6,70.9,29.75,ENE,68,1.0,6.0,64,0.00,,,0.00,VWS V14.01,2013-08-28 17:03:00,
2013-08-28 12:08:00,85.0,71.8,29.75,East,96,4.0,6.0,65,0.00,,,0.00,VWS V14.01,2013-08-28 17:08:00,
2013-08-28 12:13:00,85.3,70.7,29.75,ESE,109,2.0,7.0,62,0.00,,,0.00,VWS V14.01,2013-08-28 17:13:00,
2013-08-28 12:15:00,82.4,69.8,29.76,ESE,120,2.0,4.0,66,0.00,,,0.00,VWS V14.01,2013-08-28 17:15:00,
2013-08-28 12:18:00,85.6,70.5,29.75,ESE,115,4.0,6.0,61,0.00,,,0.00,VWS V14.01,2013-08-28 17:18:00,
2013-08-28 12:23:00,85.7,69.1,29.75,East,88,5.0,9.0,58,0.00,,,0.00,VWS V14.01,2013-08-28 17:23:00,
2013-08-28 12:28:00,86.0,71.3,29.75,ENE,78,3.0,9.0,62,0.00,,,0.00,VWS V14.01,2013-08-28 17:28:00,
2013-08-28 12:30:00,83.6,70.5,29.76,ENE,68,3.0,5.0,65,0.00,,,0.00,VWS V14.01,2013-08-28 17:30:00,
2013-08-28 12:33:00,86.1,70.5,29.75,ESE,122,4.0,7.0,60,0.00,,,0.00,VWS V14.01,2013-08-28 17:33:00,
2013-08-28 12:38:00,86.2,70.1,29.75,East,94,2.0,7.0,59,0.00,,,0.00,VWS V14.01,2013-08-28 17:38:00,
2013-08-28 12:43:00,86.3,70.2,29.75,ESE,115,5.0,7.0,59,0.00,,,0.00,VWS V14.01,2013-08-28 17:43:00,
2013-08-28 12:45:00,84.2,70.6,29.75,ENE,61,2.0,7.0,64,0.00,,,0.00,VWS V14.01,2013-08-28 17:45:00,
2013-08-28 12:48:00,86.5,71.8,29.74,ENE,78,5.0,6.0,62,0.00,,,0.00,VWS V14.01,2013-08-28 17:48:00,
2013-08-28 12:53:00,86.8,71.1,29.74,ESE,117,6.0,8.0,60,0.00,,,0.00,VWS V14.01,2013-08-28 17:53:00,
2013-08-28 12:58:00,87.0,70.3,29.74,NE,44,3.0,8.0,58,0.00,,,0.00,VWS V14.01,2013-08-28 17:58:00,
2013-08-28 13:00:00,84.6,70.9,29.75,ESE,110,4.0,9.0,64,0.00,,,0.00,VWS V14.01,2013-08-28 18:00:00,
2013-08-28 13:03:00,87.1,69.9,29.74,ESE,109,4.0,7.0,57,0.00,,,0.00,VWS V14.01,2013-08-28 18:03:00,
2013-08-28 13:08:00,87.1,69.4,29.74,ESE,113,3.0,9.0,56,0.00,,,0.00,VWS V14.01,2013-08-28 18:08:00,
2013-08-28 13:13:00,87.3,69.5,29.74,ESE,106,4.0,9.0,56,0.00,,,0.00,VWS V14.01,2013-08-28 18:13:00,
2013-08-28 13:15:00,85.5,70.9,29.75,East,90,5.0,7.0,62,0.00,,,0.00,VWS V14.01,2013-08-28 18:15:00,
2013-08-28 13:18:00,87.6,69.8,29.74,ESE,111,3.0,9.0,56,0.00,,,0.00,VWS V14.01,2013-08-28 18:18:00,
2013-08-28 13:23:00,87.9,70.1,29.74,NE,55,3.0,9.0,56,0.00,,,0.00,VWS V14.01,2013-08-28 18:23:00,
2013-08-28 13:28:00,88.2,69.8,29.74,East,84,3.0,9.0,55,0.00,,,0.00,VWS V14.01,2013-08-28 18:28:00,
2013-08-28 13:30:00,86.1,70.5,29.75,ENE,59,1.0,9.0,60,0.00,,,0.00,VWS V14.01,2013-08-28 18:30:00,
2013-08-28 13:33:00,88.0,71.2,29.73,NE,52,2.0,7.0,58,0.00,,,0.00,VWS V14.01,2013-08-28 18:33:00,
2013-08-28 13:38:00,88.3,71.0,29.73,East,98,4.0,7.0,57,0.00,,,0.00,VWS V14.01,2013-08-28 18:38:00,
2013-08-28 13:43:00,88.4,69.5,29.73,NE,49,2.0,7.0,54,0.00,,,0.00,VWS V14.01,2013-08-28 18:43:00,
2013-08-28 13:45:00,86.2,69.6,29.75,East,101,1.0,7.0,58,0.00,,,0.00,VWS V14.01,2013-08-28 18:45:00,
2013-08-28 13:48:00,88.6,69.1,29.73,East,82,2.0,4.0,53,0.00,,,0.00,VWS V14.01,2013-08-28 18:48:00,
2013-08-28 13:53:00,88.8,68.8,29.72,NE,48,2.0,5.0,52,0.00,,,0.00,VWS V14.01,2013-08-28 18:53:00,
2013-08-28 13:58:00,88.8,67.6,29.72,SE,128,5.0,8.0,50,0.00,,,0.00,VWS V14.01,2013-08-28 18:58:00,
2013-08-28 14:00:00,87.1,69.9,29.74,East,89,3.0,8.0,57,0.00,,,0.00,VWS V14.01,2013-08-28 19:00:00,
2013-08-28 14:03:00,88.9,67.7,29.72,SSE,159,7.0,8.0,50,0.00,,,0.00,VWS V14.01,2013-08-28 19:03:00,
2013-08-28 14:08:00,88.9,68.8,29.72,NE,38,4.0,9.0,52,0.00,,,0.00,VWS V14.01,2013-08-28 19:08:00,
2013-08-28 14:13:00,88.8,69.9,29.73,ESE,107,3.0,9.0,54,0.00,,,0.00,VWS V14.01,2013-08-28 19:13:00,
2013-08-28 14:15:00,87.4,71.2,29.74,ESE,113,2.0,9.0,59,0.00,,,0.00,VWS V14.01,2013-08-28 19:15:00,
2013-08-28 14:18:00,89.1,67.9,29.72,East,96,3.0,6.0,50,0.00,,,0.00,VWS V14.01,2013-08-28 19:18:00,
2013-08-28 14:23:00,89.2,66.8,29.72,ENE,78,3.0,7.0,48,0.00,,,0.00,VWS V14.01,2013-08-28 19:23:00,
2013-08-28 14:28:00,89.1,66.7,29.72,ESE,118,8.0,11.0,48,0.00,,,0.00,VWS V14.01,2013-08-28 19:28:00,
2013-08-28 14:30:00,88.1,69.2,29.74,NE,41,4.0,9.0,54,0.00,,,0.00,VWS V14.01,2013-08-28 19:30:00,
2013-08-28 14:33:00,89.0,66.0,29.72,SE,136,3.0,6.0,47,0.00,,,0.00,VWS V14.01,2013-08-28 19:33:00,
2013-08-28 14:38:00,89.1,67.9,29.72,SE,130,4.0,8.0,50,0.00,,,0.00,VWS V14.01,2013-08-28 19:38:00,
2013-08-28 14:43:00,89.2,66.8,29.72,ENE,68,5.0,8.0,48,0.00,,,0.00,VWS V14.01,2013-08-28 19:43:00,
2013-08-28 14:45:00,88.5,70.1,29.73,North,10,4.0,7.0,55,0.00,,,0.00,VWS V14.01,2013-08-28 19:45:00,
2013-08-28 14:48:00,89.0,67.2,29.71,ENE,63,2.0,8.0,49,0.00,,,0.00,VWS V14.01,2013-08-28 19:48:00,
2013-08-28 14:53:00,89.0,67.8,29.72,ESE,104,1.0,8.0,50,0.00,,,0.00,VWS V14.01,2013-08-28 19:53:00,
2013-08-28 14:58:00,89.3,70.9,29.71,East,90,1.0,9.0,55,0.00,,,0.00,VWS V14.01,2013-08-28 19:58:00,
2013-08-28 15:00:00,88.9,67.1,29.72,ESE,118,8.0,9.0,49,0.00,,,0.00,VWS V14.01,2013-08-28 20:00:00,
2013-08-28 15:03:00,89.9,68.6,29.71,SSE,159,7.0,9.0,50,0.00,,,0.00,VWS V14.01,2013-08-28 20:03:00,
2013-08-28 15:08:00,90.1,69.4,29.71,NNE,14,4.0,9.0,51,0.00,,,0.00,VWS V14.01,2013-08-28 20:08:00,
2013-08-28 15:13:00,89.9,70.3,29.71,ENE,68,2.0,9.0,53,0.00,,,0.00,VWS V14.01,2013-08-28 20:13:00,
2013-08-28 15:15:00,88.9,68.3,29.72,ENE,78,1.0,9.0,51,0.00,,,0.00,VWS V14.01,2013-08-28 20:15:00,
2013-08-28 15:18:00,90.0,68.7,29.71,SE,139,3.0,11.0,50,0.00,,,0.00,VWS V14.01,2013-08-28 20:18:00,
2013-08-28 15:23:00,90.0,68.1,29.71,SSE,155,6.0,11.0,49,0.00,,,0.00,VWS V14.01,2013-08-28 20:23:00,
2013-08-28 15:28:00,90.1,69.4,29.71,NE,43,3.0,11.0,51,0.00,,,0.00,VWS V14.01,2013-08-28 20:28:00,
2013-08-28 15:30:00,89.0,66.6,29.72,East,100,5.0,11.0,48,0.00,,,0.00,VWS V14.01,2013-08-28 20:30:00,
2013-08-28 15:33:00,90.2,67.1,29.71,SE,143,4.0,9.0,47,0.00,,,0.00,VWS V14.01,2013-08-28 20:33:00,
2013-08-28 15:38:00,90.4,67.9,29.71,SE,141,5.0,11.0,48,0.00,,,0.00,VWS V14.01,2013-08-28 20:38:00,
2013-08-28 15:43:00,90.6,67.4,29.70,SSE,166,5.0,11.0,47,0.00,,,0.00,VWS V14.01,2013-08-28 20:43:00,
2013-08-28 15:45:00,89.2,67.4,29.72,East,91,4.0,8.0,49,0.00,,,0.00,VWS V14.01,2013-08-28 20:45:00,
2013-08-28 15:48:00,90.6,68.1,29.70,East,92,3.0,7.0,48,0.00,,,0.00,VWS V14.01,2013-08-28 20:48:00,
2013-08-28 15:53:00,90.6,66.8,29.70,SE,144,5.0,15.0,46,0.00,,,0.00,VWS V14.01,2013-08-28 20:53:00,
2013-08-28 15:58:00,90.6,67.4,29.70,SSW,192,5.0,15.0,47,0.00,,,0.00,VWS V14.01,2013-08-28 20:58:00,
2013-08-28 16:00:00,89.6,70.6,29.71,ESE,111,4.0,9.0,54,0.00,,,0.00,VWS V14.01,2013-08-28 21:00:00,
2013-08-28 16:03:00,90.6,67.4,29.70,SE,145,2.0,9.0,47,0.00,,,0.00,VWS V14.01,2013-08-28 21:03:00,
2013-08-28 16:08:00,90.5,66.1,29.70,SSE,149,7.0,10.0,45,0.00,,,0.00,VWS V14.01,2013-08-28 21:08:00,
2013-08-28 16:13:00,90.4,66.6,29.70,SE,144,7.0,10.0,46,0.00,,,0.00,VWS V14.01,2013-08-28 21:13:00,
2013-08-28 16:15:00,89.9,69.8,29.71,SE,126,2.0,9.0,52,0.00,,,0.00,VWS V14.01,2013-08-28 21:15:00,
2013-08-28 16:18:00,90.4,66.6,29.70,South,179,7.0,10.0,46,0.00,,,0.00,VWS V14.01,2013-08-28 21:18:00,
2013-08-28 16:23:00,90.3,67.2,29.69,SSE,161,6.0,11.0,47,0.00,,,0.00,VWS V14.01,2013-08-28 21:23:00,
2013-08-28 16:28:00,90.4,66.6,29.69,South,181,5.0,11.0,46,0.00,,,0.00,VWS V14.01,2013-08-28 21:28:00,
2013-08-28 16:30:00,90.1,69.4,29.71,ESE,111,3.0,11.0,51,0.00,,,0.00,VWS V14.01,2013-08-28 21:30:00,
2013-08-28 16:32:00,90.5,66.7,29.69,South,172,6.0,8.0,46,0.00,,,0.00,VWS V14.01,2013-08-28 21:32:00,
2013-08-28 16:37:00,90.4,67.3,29.69,SSE,153,2.0,8.0,47,0.00,,,0.00,VWS V14.01,2013-08-28 21:37:00,
2013-08-28 16:42:00,90.4,67.9,29.69,ESE,122,2.0,8.0,48,0.00,,,0.00,VWS V14.01,2013-08-28 21:42:00,
2013-08-28 16:45:00,90.7,67.5,29.71,ESE,116,3.0,11.0,47,0.00,,,0.00,VWS V14.01,2013-08-28 21:45:00,
2013-08-28 16:47:00,90.8,67.6,29.69,SE,125,5.0,9.0,47,0.00,,,0.00,VWS V14.01,2013-08-28 21:47:00,
2013-08-28 16:52:00,90.8,67.6,29.69,SSE,156,3.0,11.0,47,0.00,,,0.00,VWS V14.01,2013-08-28 21:52:00,
2013-08-28 16:57:00,90.7,66.9,29.69,ENE,68,3.0,11.0,46,0.00,,,0.00,VWS V14.01,2013-08-28 21:57:00,
2013-08-28 17:00:00,90.7,66.9,29.70,SSE,155,9.0,15.0,46,0.00,,,0.00,VWS V14.01,2013-08-28 22:00:00,
2013-08-28 17:02:00,90.3,67.8,29.69,East,98,4.0,7.0,48,0.00,,,0.00,VWS V14.01,2013-08-28 22:02:00,
2013-08-28 17:07:00,89.6,67.1,29.69,ESE,111,4.0,8.0,48,0.00,,,0.00,VWS V14.01,2013-08-28 22:07:00,
2013-08-28 17:12:00,89.0,66.6,29.69,ESE,115,3.0,8.0,48,0.00,,,0.00,VWS V14.01,2013-08-28 22:12:00,
2013-08-28 17:15:00,90.3,66.5,29.70,South,186,4.0,10.0,46,0.00,,,0.00,VWS V14.01,2013-08-28 22:15:00,
2013-08-28 17:17:00,88.7,67.5,29.68,ESE,107,2.0,4.0,50,0.00,,,0.00,VWS V14.01,2013-08-28 22:17:00,
2013-08-28 17:22:00,88.7,68.7,29.68,NE,36,2.0,5.0,52,0.00,,,0.00,VWS V14.01,2013-08-28 22:22:00,
2013-08-28 17:27:00,88.5,67.9,29.68,ENE,68,1.0,5.0,51,0.00,,,0.00,VWS V14.01,2013-08-28 22:27:00,
2013-08-28 17:30:00,90.5,66.7,29.69,SSE,161,5.0,11.0,46,0.00,,,0.00,VWS V14.01,2013-08-28 22:30:00,
2013-08-28 17:32:00,88.2,68.2,29.68,ESE,108,1.0,4.0,52,0.00,,,0.00,VWS V14.01,2013-08-28 22:32:00,
2013-08-28 17:37:00,88.4,68.9,29.68,ESE,113,3.0,7.0,53,0.00,,,0.00,VWS V14.01,2013-08-28 22:37:00,
2013-08-28 17:42:00,88.8,68.8,29.68,NE,53,3.0,7.0,52,0.00,,,0.00,VWS V14.01,2013-08-28 22:42:00,
2013-08-28 17:45:00,90.6,67.4,29.69,SSE,163,3.0,8.0,47,0.00,,,0.00,VWS V14.01,2013-08-28 22:45:00,
2013-08-28 17:47:00,88.6,66.8,29.68,SE,135,5.0,5.0,49,0.00,,,0.00,VWS V14.01,2013-08-28 22:47:00,
2013-08-28 17:52:00,88.7,66.9,29.68,SE,130,3.0,8.0,49,0.00,,,0.00,VWS V14.01,2013-08-28 22:52:00,
2013-08-28 17:57:00,88.8,67.6,29.68,ESE,115,3.0,9.0,50,0.00,,,0.00,VWS V14.01,2013-08-28 22:57:00,
2013-08-28 18:00:00,90.6,67.4,29.69,ESE,113,5.0,11.0,47,0.00,,,0.00,VWS V14.01,2013-08-28 23:00:00,
2013-08-28 18:02:00,89.0,67.2,29.68,ESE,119,6.0,6.0,49,0.00,,,0.00,VWS V14.01,2013-08-28 23:02:00,
2013-08-28 18:07:00,89.0,66.6,29.67,SE,137,2.0,9.0,48,0.00,,,0.00,VWS V14.01,2013-08-28 23:07:00,
2013-08-28 18:12:00,88.9,67.1,29.67,SE,132,4.0,10.0,49,0.00,,,0.00,VWS V14.01,2013-08-28 23:12:00,
2013-08-28 18:15:00,88.8,67.0,29.69,ESE,103,4.0,8.0,49,0.00,,,0.00,VWS V14.01,2013-08-28 23:15:00,
2013-08-28 18:17:00,88.9,67.1,29.67,SE,126,2.0,8.0,49,0.00,,,0.00,VWS V14.01,2013-08-28 23:17:00,
2013-08-28 18:22:00,88.7,68.1,29.67,ESE,103,3.0,8.0,51,0.00,,,0.00,VWS V14.01,2013-08-28 23:22:00,
2013-08-28 18:27:00,88.4,68.4,29.67,ESE,103,2.0,8.0,52,0.00,,,0.00,VWS V14.01,2013-08-28 23:27:00,
2013-08-28 18:30:00,88.3,67.2,29.68,East,99,3.0,8.0,50,0.00,,,0.00,VWS V14.01,2013-08-28 23:30:00,
2013-08-28 18:32:00,88.4,67.8,29.67,ESE,115,3.0,5.0,51,0.00,,,0.00,VWS V14.01,2013-08-28 23:32:00,
2013-08-28 18:37:00,88.5,66.7,29.67,East,92,3.0,11.0,49,0.00,,,0.00,VWS V14.01,2013-08-28 23:37:00,
2013-08-28 18:42:00,88.8,67.0,29.67,ESE,108,3.0,11.0,49,0.00,,,0.00,VWS V14.01,2013-08-28 23:42:00,
2013-08-28 18:45:00,88.6,67.4,29.68,ESE,119,3.0,7.0,50,0.00,,,0.00,VWS V14.01,2013-08-28 23:45:00,
2013-08-28 18:47:00,89.0,67.2,29.67,SE,130,4.0,8.0,49,0.00,,,0.00,VWS V14.01,2013-08-28 23:47:00,
2013-08-28 18:52:00,89.2,67.4,29.67,SE,136,3.0,8.0,49,0.00,,,0.00,VWS V14.01,2013-08-28 23:52:00,
2013-08-28 18:57:00,89.2,66.8,29.66,ESE,113,6.0,8.0,48,0.00,,,0.00,VWS V14.01,2013-08-28 23:57:00,
2013-08-28 19:00:00,88.9,67.1,29.68,ESE,109,2.0,9.0,49,0.00,,,0.00,VWS V14.01,2013-08-29 00:00:00,
2013-08-28 19:02:00,89.3,66.3,29.66,ESE,111,6.0,8.0,47,0.00,,,0.00,VWS V14.01,2013-08-29 00:02:00,
2013-08-28 19:07:00,89.2,66.2,29.66,SE,127,4.0,10.0,47,0.00,,,0.00,VWS V14.01,2013-08-29 00:07:00,
2013-08-28 19:12:00,89.2,66.8,29.66,ESE,106,4.0,10.0,48,0.00,,,0.00,VWS V14.01,2013-08-29 00:12:00,
2013-08-28 19:15:00,88.9,67.1,29.67,ESE,111,6.0,10.0,49,0.00,,,0.00,VWS V14.01,2013-08-29 00:15:00,
2013-08-28 19:17:00,89.0,66.0,29.66,ESE,107,4.0,9.0,47,0.00,,,0.00,VWS V14.01,2013-08-29 00:17:00,
2013-08-28 19:22:00,88.8,66.4,29.66,ESE,117,3.0,9.0,48,0.00,,,0.00,VWS V14.01,2013-08-29 00:22:00,
2013-08-28 19:27:00,88.5,66.1,29.66,ESE,116,3.0,9.0,48,0.00,,,0.00,VWS V14.01,2013-08-29 00:27:00,
2013-08-28 19:30:00,88.4,68.4,29.67,SE,146,4.0,8.0,52,0.00,,,0.00,VWS V14.01,2013-08-29 00:30:00,
2013-08-28 19:32:00,88.1,65.8,29.66,SE,143,3.0,6.0,48,0.00,,,0.00,VWS V14.01,2013-08-29 00:32:00,
2013-08-28 19:37:00,87.9,66.2,29.66,SE,139,3.0,8.0,49,0.00,,,0.00,VWS V14.01,2013-08-29 00:37:00,
2013-08-28 19:42:00,87.9,66.2,29.66,ESE,113,3.0,8.0,49,0.00,,,0.00,VWS V14.01,2013-08-29 00:42:00,
2013-08-28 19:45:00,88.8,67.0,29.67,SE,134,4.0,11.0,49,0.00,,,0.00,VWS V14.01,2013-08-29 00:45:00,
2013-08-28 19:47:00,87.7,66.6,29.66,ESE,123,1.0,4.0,50,0.00,,,0.00,VWS V14.01,2013-08-29 00:47:00,
2013-08-28 19:52:00,87.5,67.0,29.66,ESE,104,3.0,6.0,51,0.00,,,0.00,VWS V14.01,2013-08-29 00:52:00,
2013-08-28 19:57:00,87.2,66.1,29.66,ESE,113,2.0,6.0,50,0.00,,,0.00,VWS V14.01,2013-08-29 00:57:00,
2013-08-28 20:00:00,89.3,66.9,29.66,East,84,3.0,8.0,48,0.00,,,0.00,VWS V14.01,2013-08-29 01:00:00,
2013-08-28 20:02:00,87.0,66.5,29.66,East,96,2.0,3.0,51,0.00,,,0.00,VWS V14.01,2013-08-29 01:02:00,
2013-08-28 20:07:00,86.7,66.3,29.66,SE,124,3.0,3.0,51,0.00,,,0.00,VWS V14.01,2013-08-29 01:07:00,
2013-08-28 20:12:00,86.5,67.2,29.66,ESE,105,2.0,4.0,53,0.00,,,0.00,VWS V14.01,2013-08-29 01:12:00,
2013-08-28 20:15:00,89.1,66.7,29.66,ENE,68,5.0,10.0,48,0.00,,,0.00,VWS V14.01,2013-08-29 01:15:00,
2013-08-28 20:17:00,86.2,66.9,29.66,ESE,104,2.0,5.0,53,0.00,,,0.00,VWS V14.01,2013-08-29 01:17:00,
2013-08-28 20:22:00,86.1,66.8,29.66,ESE,110,3.0,5.0,53,0.00,,,0.00,VWS V14.01,2013-08-29 01:22:00,
2013-08-28 20:27:00,85.9,67.2,29.66,ESE,107,2.0,5.0,54,0.00,,,0.00,VWS V14.01,2013-08-29 01:27:00,
2013-08-28 20:30:00,88.3,66.6,29.66,East,84,5.0,9.0,49,0.00,,,0.00,VWS V14.01,2013-08-29 01:30:00,
2013-08-28 20:32:00,85.7,67.5,29.66,East,100,2.0,4.0,55,0.00,,,0.00,VWS V14.01,2013-08-29 01:32:00,
2013-08-28 20:37:00,85.4,67.2,29.66,East,101,3.0,4.0,55,0.00,,,0.00,VWS V14.01,2013-08-29 01:37:00,
2013-08-28 20:42:00,85.2,67.6,29.66,ENE,68,2.0,4.0,56,0.00,,,0.00,VWS V14.01,2013-08-29 01:42:00,
2013-08-28 20:45:00,87.8,66.7,29.66,East,84,3.0,8.0,50,0.00,,,0.00,VWS V14.01,2013-08-29 01:45:00,
2013-08-28 20:47:00,85.0,67.4,29.66,ESE,104,2.0,3.0,56,0.00,,,0.00,VWS V14.01,2013-08-29 01:47:00,
2013-08-28 20:52:00,84.8,67.2,29.66,East,96,2.0,4.0,56,0.00,,,0.00,VWS V14.01,2013-08-29 01:52:00,
2013-08-28 20:57:00,84.8,67.2,29.66,East,89,2.0,6.0,56,0.00,,,0.00,VWS V14.01,2013-08-29 01:57:00,
2013-08-28 21:00:00,87.1,66.6,29.66,East,101,3.0,6.0,51,0.00,,,0.00,VWS V14.01,2013-08-29 02:00:00,
2013-08-28 21:02:00,84.7,67.1,29.67,East,90,1.0,5.0,56,0.00,,,0.00,VWS V14.01,2013-08-29 02:02:00,
2013-08-28 21:07:00,84.5,67.5,29.67,East,93,2.0,5.0,57,0.00,,,0.00,VWS V14.01,2013-08-29 02:07:00,
2013-08-28 21:12:00,84.1,67.6,29.67,East,95,2.0,5.0,58,0.00,,,0.00,VWS V14.01,2013-08-29 02:12:00,
2013-08-28 21:15:00,86.3,67.0,29.66,East,99,2.0,4.0,53,0.00,,,0.00,VWS V14.01,2013-08-29 02:15:00,
2013-08-28 21:17:00,83.7,67.7,29.66,ESE,109,2.0,5.0,59,0.00,,,0.00,VWS V14.01,2013-08-29 02:17:00,
2013-08-28 21:22:00,83.4,67.9,29.66,ESE,107,3.0,5.0,60,0.00,,,0.00,VWS V14.01,2013-08-29 02:22:00,
2013-08-28 21:27:00,83.3,67.8,29.66,ESE,116,3.0,5.0,60,0.00,,,0.00,VWS V14.01,2013-08-29 02:27:00,
2013-08-28 21:30:00,85.8,67.1,29.66,East,99,1.0,5.0,54,0.00,,,0.00,VWS V14.01,2013-08-29 02:30:00,
2013-08-28 21:32:00,83.1,67.6,29.67,SE,131,1.0,3.0,60,0.00,,,0.00,VWS V14.01,2013-08-29 02:32:00,
2013-08-28 21:37:00,82.9,67.5,29.66,ESE,115,2.0,4.0,60,0.00,,,0.00,VWS V14.01,2013-08-29 02:37:00,
2013-08-28 21:42:00,82.8,67.8,29.67,SE,136,2.0,4.0,61,0.00,,,0.00,VWS V14.01,2013-08-29 02:42:00,
2013-08-28 21:45:00,85.1,67.5,29.66,East,97,2.0,4.0,56,0.00,,,0.00,VWS V14.01,2013-08-29 02:45:00,
2013-08-28 21:47:00,82.5,67.6,29.67,ESE,106,0.0,2.0,61,0.00,,,0.00,VWS V14.01,2013-08-29 02:47:00,
2013-08-28 21:52:00,82.1,67.7,29.66,East,91,2.0,4.0,62,0.00,,,0.00,VWS V14.01,2013-08-29 02:52:00,
2013-08-28 21:57:00,81.6,67.7,29.66,ESE,115,4.0,5.0,63,0.00,,,0.00,VWS V14.01,2013-08-29 02:57:00,
2013-08-28 22:00:00,84.7,67.1,29.66,East,98,5.0,6.0,56,0.00,,,0.00,VWS V14.01,2013-08-29 03:00:00,
2013-08-28 22:02:00,81.5,67.6,29.66,East,96,2.0,3.0,63,0.00,,,0.00,VWS V14.01,2013-08-29 03:02:00,
2013-08-28 22:07:00,81.3,67.4,29.66,East,97,4.0,4.0,63,0.00,,,0.00,VWS V14.01,2013-08-29 03:07:00,
2013-08-28 22:12:00,81.1,67.6,29.66,East,98,3.0,4.0,64,0.00,,,0.00,VWS V14.01,2013-08-29 03:12:00,
2013-08-28 22:15:00,83.8,67.8,29.66,East,97,2.0,5.0,59,0.00,,,0.00,VWS V14.01,2013-08-29 03:15:00,
2013-08-28 22:17:00,80.9,67.4,29.66,East,99,1.0,3.0,64,0.00,,,0.00,VWS V14.01,2013-08-29 03:17:00,
2013-08-28 22:22:00,80.6,67.2,29.65,ESE,104,2.0,4.0,64,0.00,,,0.00,VWS V14.01,2013-08-29 03:22:00,
2013-08-28 22:27:00,80.5,67.5,29.65,East,88,2.0,4.0,65,0.00,,,0.00,VWS V14.01,2013-08-29 03:27:00,
2013-08-28 22:30:00,83.2,67.7,29.66,ESE,103,2.0,5.0,60,0.00,,,0.00,VWS V14.01,2013-08-29 03:30:00,
2013-08-28 22:32:00,80.3,67.3,29.66,SE,124,1.0,4.0,65,0.00,,,0.00,VWS V14.01,2013-08-29 03:32:00,
2013-08-28 22:37:00,80.2,67.7,29.66,East,88,2.0,5.0,66,0.00,,,0.00,VWS V14.01,2013-08-29 03:37:00,
2013-08-28 22:42:00,80.1,67.6,29.65,East,99,3.0,6.0,66,0.00,,,0.00,VWS V14.01,2013-08-29 03:42:00,
2013-08-28 22:45:00,82.6,67.7,29.67,ESE,106,1.0,4.0,61,0.00,,,0.00,VWS V14.01,2013-08-29 03:45:00,
2013-08-28 22:47:00,80.0,67.5,29.65,ESE,110,5.0,8.0,66,0.00,,,0.00,VWS V14.01,2013-08-29 03:47:00,
2013-08-28 22:52:00,80.0,67.5,29.65,SE,144,3.0,8.0,66,0.00,,,0.00,VWS V14.01,2013-08-29 03:52:00,
2013-08-28 22:59:00,79.7,67.2,29.66,SE,133,3.0,8.0,66,0.00,,,0.00,VWS V14.01,2013-08-29 03:59:00,
2013-08-28 23:00:00,81.5,67.6,29.66,ESE,111,2.0,5.0,63,0.00,,,0.00,VWS V14.01,2013-08-29 04:00:00,
2013-08-28 23:01:00,79.7,67.2,29.66,ESE,116,3.0,6.0,66,0.00,,,0.00,VWS V14.01,2013-08-29 04:01:00,
2013-08-28 23:02:00,79.6,67.1,29.66,SE,124,3.0,6.0,66,0.00,,,0.00,VWS V14.01,2013-08-29 04:02:00,
2013-08-28 23:07:00,79.5,67.5,29.65,East,94,4.0,6.0,67,0.00,,,0.00,VWS V14.01,2013-08-29 04:07:00,
2013-08-28 23:12:00,79.3,67.3,29.65,ESE,123,3.0,6.0,67,0.00,,,0.00,VWS V14.01,2013-08-29 04:12:00,
2013-08-28 23:15:00,80.9,67.4,29.66,ESE,108,2.0,5.0,64,0.00,,,0.00,VWS V14.01,2013-08-29 04:15:00,
2013-08-28 23:17:00,79.1,67.5,29.65,East,95,3.0,6.0,68,0.00,,,0.00,VWS V14.01,2013-08-29 04:17:00,
2013-08-28 23:22:00,78.7,67.6,29.66,East,94,2.0,6.0,69,0.00,,,0.00,VWS V14.01,2013-08-29 04:22:00,
2013-08-28 23:27:00,78.4,67.3,29.66,ESE,109,3.0,6.0,69,0.00,,,0.00,VWS V14.01,2013-08-29 04:27:00,
2013-08-28 23:30:00,80.4,67.4,29.65,East,98,3.0,5.0,65,0.00,,,0.00,VWS V14.01,2013-08-29 04:30:00,
2013-08-28 23:32:00,78.3,67.6,29.66,SSE,160,3.0,6.0,70,0.00,,,0.00,VWS V14.01,2013-08-29 04:32:00,
2013-08-28 23:37:00,78.4,67.3,29.66,SE,124,6.0,8.0,69,0.00,,,0.00,VWS V14.01,2013-08-29 04:37:00,
2013-08-28 23:42:00,78.4,67.3,29.65,East,92,4.0,10.0,69,0.00,,,0.00,VWS V14.01,2013-08-29 04:42:00,
2013-08-28 23:45:00,80.0,67.5,29.65,East,96,3.0,7.0,66,0.00,,,0.00,VWS V14.01,2013-08-29 04:45:00,
2013-08-28 23:47:00,78.3,67.2,29.65,ESE,103,4.0,7.0,69,0.00,,,0.00,VWS V14.01,2013-08-29 04:47:00,
2013-08-28 23:52:00,78.0,67.3,29.65,SE,137,4.0,8.0,70,0.00,,,0.00,VWS V14.01,2013-08-29 04:52:00,
2013-08-28 23:57:00,77.8,67.1,29.65,SE,124,5.0,9.0,70,0.00,,,0.00,VWS V14.01,2013-08-29 04:57:00,